Regional Weather Roundup
Issued by NWS

Home | Current Version | Previous Version | Text Only | Print | Product List | Glossary On
Versions: 1 2 3 4 5 6 7 8 9 10 11 12 13 14 15 16 17 18 19 20 21 22 23 24 25 26 27 28 29 30 31 32 33 34 35 36 37 38 39 40 41 42 43 44 45 46 47 48 49 50
000
ASUS45 KPSR 212310
RWRAZ

ARIZONA HOURLY REGIONAL WEATHER ROUNDUP
NATIONAL WEATHER SERVICE PHOENIX AZ
400 PM MST MON AUG 21 2017

NOTE: FAIR INDICATES FEW OR NO CLOUDS BELOW 12,000 FEET WITH NO
SIGNIFICANT WEATHER AND/OR OBSTRUCTIONS TO VISIBILITY.

AZZ001>003-036-220000-
NORTHWEST ARIZONA

CITY           SKY/WX    TMP DP  RH WIND       PRES   REMARKS
BULLHEAD CITY  PTSUNNY   97  52  21 E15G23    29.89F
KINGMAN        CLOUDY    76  57  51 E13       30.13F
$$

AZZ004>008-015-016-018-220000-
NORTH CENTRAL ARIZONA

CITY           SKY/WX    TMP DP  RH WIND       PRES   REMARKS
GRAND CANYON   CLOUDY    64  57  78 NE3       30.32F
WILLIAMS       DRIZZLE   66  54  63 NW12      30.34R
PRESCOTT       PTSUNNY   75  54  47 W15       30.22F
FLAGSTAFF      CLOUDY    68  52  56 W7        30.33R
PAYSON           N/A     86  45  23 SW6G12    30.18F
PAGE           MOSUNNY   92  41  17 VRB5G20   30.07F
$$

AZZ009>014-017-220000-
NORTHEAST ARIZONA

CITY           SKY/WX    TMP DP  RH WIND       PRES   REMARKS
WINSLOW        MOSUNNY   90  43  19 NE6       30.14F
SAINT JOHNS    MOSUNNY   85  44  23 W5        30.19F
WINDOW ROCK    CLOUDY    69  58  67 W3        30.29F
SHOW LOW       PTSUNNY   77  46  33 NW6       30.27S
$$

AZZ540-542>544-546-548-220000-
GREATER PHOENIX AREA

CITY           SKY/WX    TMP DP  RH WIND       PRES   REMARKS
PHOENIX        MOSUNNY  102  41  12 W8        29.86F
BUCKEYE        SUNNY    100  45  15 S8        29.87F
LUKE AFB       SUNNY    101  48  16 S5        29.86F
DEER VALLEY    SUNNY     98  52  21 SW8       29.89F
SCOTTSDALE     SUNNY    101  46  15 W8        29.91F
CHANDLER       MOSUNNY  100  50  18 W9        29.88F
$$

AZZ539-553-220000-
SOUTHWEST MARICOPA COUNTY AND PINAL COUNTY

CITY           SKY/WX    TMP DP  RH WIND       PRES   REMARKS
CASA GRANDE    SUNNY     99  50  19 SW7       29.91F
GILA BEND      MOSUNNY  102  46  14 W10G16    29.85F
$$

AZZ503-504-507>509-220000-
SOUTHEAST ARIZONA

CITY           SKY/WX    TMP DP  RH WIND       PRES   REMARKS
TUCSON         SUNNY     97  48  19 N8        30.00F
DAVIS-MONTHAN  SUNNY    100  50  18 E6        29.99F
RYAN FIELD     SUNNY     97  48  19 MISG      29.99F
NOGALES        MOSUNNY   88  52  29 SW7       30.09S
SIERRA VISTA   MOSUNNY   87  51  29 CALM      30.16F
DOUGLAS        SUNNY     88  49  25 CALM      30.11S
SAFFORD        SUNNY     93  51  23 W8        30.00F
$$

AZZ532-220000-
SOUTHWEST ARIZONA

CITY           SKY/WX    TMP DP  RH WIND       PRES   REMARKS
YUMA           PTSUNNY  103  53  19 CALM      29.81F HX 101
$$

CAZ041-043-047-048-061-525>527-560>570-220000-
SOUTHERN CALIFORNIA

CITY           SKY/WX    TMP DP  RH WIND       PRES   REMARKS
DOWNTOWN L.A.  SUNNY     77  61  57 W7        29.97S
L.A. AIRPORT   MOSUNNY   73  62  68 SW15      29.98F
SAN DIEGO      MOSUNNY   76  61  59 W10       29.99F
BURBANK        SUNNY     82  58  43 S8        29.96F
ONTARIO        MOSUNNY   89  55  31 SW13      29.95F
RIVERSIDE      SUNNY     88  58  36 W14       29.94F
PALM SPRINGS   SUNNY    105  39  10 S6        29.84F
EL CENTRO NAS  MOSUNNY  103  39  11 SE6       29.81F
IMPERIAL       MOSUNNY  104  47  14 E5        29.79F HX 100
BLYTHE         MOSUNNY  104  50  16 VRB3      29.83F HX 101
NEEDLES        MOSUNNY  103  53  19 VRB6      29.89F HX 101
$$

NVZ020-UTZ003-220000-
SOUTHERN NEVADA-UTAH

CITY           SKY/WX    TMP DP  RH WIND       PRES   REMARKS
LAS VEGAS      PTSUNNY   92  53  26 E9        30.01F
SALT LAKE CITY MOSUNNY   92  44  19 NW5       30.09S
$$

NMZ009-TXZ055-220000-
NEW MEXICO-WEST TEXAS

CITY           SKY/WX    TMP DP  RH WIND       PRES   REMARKS
ALBUQUERQUE    MOSUNNY   78  56  46 CALM      30.20F
EL PASO        MOSUNNY   85  62  46 CALM      30.11F
$$


........................KEY........................
SKY/WX - SKY CONDITION/WEATHER
TMP    - TEMPERATURE IN FAHRENHEIT
DP     - DEW POINT IN FAHRENHEIT
RH     - RELATIVE HUMIDITY IN PERCENT
WIND   - DIRECTION AND SPEED IN MILES PER HOUR (MPH)
VRB    - VARIABLE WIND DIRECTION
PRES   - MEAN SEA LEVEL PRESSURE IN INCHES OF MERCURY
         F - FALLING PRESSURE   R - RISING PRESSURE
         S - STEADY PRESSURE
VSB    - VISIBILITY IN MILES
HX     - HEAT INDEX IN FAHRENHEIT
WCI    - WIND CHILL INDEX IN FAHRENHEIT
TC     - TEMPERATURE IN CELSIUS WHICH IS ALSO KNOWN AS
         TEMPERATURE IN CENTIGRADE
AFB    - AIR FORCE BASE
         LUKE AFB IS LUKE AIR FORCE BASE
         DAVIS-MONTHAN IS DAVIS-MONTHAN AIR FORCE BASE
NAS    - NAVAL AIR STATION
         EL CENTRO NAS IS EL CENTRO NAVAL AIR STATION
N/A    - NOT AVAILABLE




USA.gov is the U.S. government's official web portal to all federal, state and local government web resources and services.